Time,TemperatureF,DewpointF,PressureIn,WindDirection,WindDirectionDegrees,WindSpeedMPH,WindSpeedGustMPH,Humidity,HourlyPrecipIn,Conditions,Clouds,dailyrainin,SoftwareType,DateUTC
2013-11-05 00:02:00,41.2,27.5,30.41,WNW,292,0.0,0.0,58,0.00,,---,0.00,VWS V14.00,2013-11-05 05:02:00,
2013-11-05 00:04:00,41.2,27.5,30.41,WNW,292,0.0,0.0,58,0.00,,---,0.00,VWS V14.00,2013-11-05 05:04:00,
2013-11-05 00:05:00,41.2,27.5,30.41,WNW,292,0.0,0.0,58,0.00,,---,0.00,VWS V14.00,2013-11-05 05:05:00,
2013-11-05 00:08:00,41.0,27.4,30.41,WNW,292,0.9,0.9,58,0.00,,---,0.00,VWS V14.00,2013-11-05 05:08:00,
2013-11-05 00:13:00,41.0,27.4,30.41,WNW,292,0.0,0.0,58,0.00,,---,0.00,VWS V14.00,2013-11-05 05:13:00,
2013-11-05 00:18:00,41.0,27.4,30.41,ENE,68,1.1,1.1,58,0.00,,---,0.00,VWS V14.00,2013-11-05 05:18:00,
2013-11-05 00:21:00,41.0,27.8,30.41,NNE,22,0.0,1.3,59,0.00,,---,0.00,VWS V14.00,2013-11-05 05:21:00,
2013-11-05 00:27:00,41.0,27.8,30.41,NNW,338,0.9,1.1,59,0.00,,---,0.00,VWS V14.00,2013-11-05 05:27:00,
2013-11-05 00:32:00,41.0,27.8,30.41,NNE,22,0.0,0.0,59,0.00,,---,0.00,VWS V14.00,2013-11-05 05:32:00,
2013-11-05 00:38:00,40.6,27.5,30.41,NNE,22,0.0,0.0,59,0.00,,---,0.00,VWS V14.00,2013-11-05 05:38:00,
2013-11-05 00:44:00,40.6,27.5,30.41,NNE,22,0.0,0.0,59,0.00,,---,0.00,VWS V14.00,2013-11-05 05:44:00,
2013-11-05 00:50:00,40.6,27.5,30.41,NNW,338,0.0,0.0,59,0.00,,---,0.00,VWS V14.00,2013-11-05 05:50:00,
2013-11-05 00:55:00,40.8,27.6,30.41,ENE,68,0.0,0.0,59,0.00,,---,0.00,VWS V14.00,2013-11-05 05:55:00,
2013-11-05 01:01:00,41.0,28.2,30.41,NE,45,1.1,1.1,60,0.00,,---,0.00,VWS V14.00,2013-11-05 06:01:00,
2013-11-05 01:06:00,41.0,27.8,30.41,NE,45,1.3,1.3,59,0.00,,---,0.00,VWS V14.00,2013-11-05 06:06:00,
2013-11-05 01:12:00,41.0,28.2,30.41,ENE,68,0.9,1.3,60,0.00,,---,0.00,VWS V14.00,2013-11-05 06:12:00,
2013-11-05 01:17:00,41.2,28.0,30.41,NNE,22,0.0,1.6,59,0.00,,---,0.00,VWS V14.00,2013-11-05 06:17:00,
2013-11-05 01:22:00,41.2,28.4,30.41,NE,45,1.3,1.3,60,0.00,,---,0.00,VWS V14.00,2013-11-05 06:22:00,
2013-11-05 01:28:00,41.2,28.4,30.41,ENE,68,2.0,2.5,60,0.00,,---,0.00,VWS V14.00,2013-11-05 06:28:00,
2013-11-05 01:33:00,41.2,28.4,30.41,NE,45,2.0,2.0,60,0.00,,---,0.00,VWS V14.00,2013-11-05 06:33:00,
2013-11-05 01:39:00,41.2,28.4,30.41,ESE,112,2.2,2.2,60,0.00,,---,0.00,VWS V14.00,2013-11-05 06:39:00,
2013-11-05 01:44:00,41.0,28.2,30.41,NE,45,2.2,2.2,60,0.00,,---,0.00,VWS V14.00,2013-11-05 06:44:00,
2013-11-05 01:50:00,41.2,28.4,30.41,NE,45,1.1,1.1,60,0.00,,---,0.00,VWS V14.00,2013-11-05 06:50:00,
2013-11-05 01:56:00,41.0,28.6,30.41,ENE,68,1.1,2.0,61,0.00,,---,0.00,VWS V14.00,2013-11-05 06:56:00,
2013-11-05 02:01:00,41.2,28.8,30.41,ENE,68,0.0,0.9,61,0.00,,---,0.00,VWS V14.00,2013-11-05 07:01:00,
2013-11-05 02:06:00,41.2,28.8,30.41,ENE,68,0.9,1.1,61,0.00,,---,0.00,VWS V14.00,2013-11-05 07:06:00,
2013-11-05 02:12:00,41.4,29.3,30.41,ENE,68,1.1,2.7,62,0.00,,---,0.00,VWS V14.00,2013-11-05 07:12:00,
2013-11-05 02:17:00,41.4,28.9,30.41,NE,45,0.0,0.0,61,0.00,,---,0.00,VWS V14.00,2013-11-05 07:17:00,
2013-11-05 02:23:00,41.4,28.9,30.41,ENE,68,2.5,2.5,61,0.00,,---,0.00,VWS V14.00,2013-11-05 07:23:00,
2013-11-05 02:28:00,41.2,29.2,30.39,ENE,68,1.3,1.3,62,0.00,,---,0.00,VWS V14.00,2013-11-05 07:28:00,
2013-11-05 02:33:00,41.2,29.2,30.39,ENE,68,1.1,2.0,62,0.00,,---,0.00,VWS V14.00,2013-11-05 07:33:00,
2013-11-05 02:39:00,41.4,29.3,30.39,NNE,22,0.9,0.9,62,0.00,,---,0.00,VWS V14.00,2013-11-05 07:39:00,
2013-11-05 02:45:00,41.5,29.9,30.39,ENE,68,0.0,0.0,63,0.00,,---,0.00,VWS V14.00,2013-11-05 07:45:00,
2013-11-05 02:51:00,41.5,29.9,30.39,ENE,68,0.0,0.0,63,0.00,,---,0.00,VWS V14.00,2013-11-05 07:51:00,
2013-11-05 02:57:00,41.5,29.9,30.39,ENE,68,0.0,0.0,63,0.00,,---,0.00,VWS V14.00,2013-11-05 07:57:00,
2013-11-05 03:02:00,41.5,29.9,30.39,ENE,68,0.0,0.0,63,0.00,,---,0.00,VWS V14.00,2013-11-05 08:02:00,
2013-11-05 03:08:00,41.7,30.1,30.39,ENE,68,0.0,0.0,63,0.00,,---,0.00,VWS V14.00,2013-11-05 08:08:00,
2013-11-05 03:14:00,41.5,30.3,30.39,ENE,68,0.0,0.0,64,0.00,,---,0.00,VWS V14.00,2013-11-05 08:14:00,
2013-11-05 03:19:00,41.4,30.1,30.39,ENE,68,0.0,0.0,64,0.00,,---,0.00,VWS V14.00,2013-11-05 08:19:00,
2013-11-05 03:25:00,41.4,30.5,30.39,WNW,292,0.0,1.6,65,0.00,,---,0.00,VWS V14.00,2013-11-05 08:25:00,
2013-11-05 03:30:00,41.5,30.7,30.39,WNW,292,1.3,1.3,65,0.00,,---,0.00,VWS V14.00,2013-11-05 08:30:00,
2013-11-05 03:36:00,41.5,30.3,30.39,WNW,292,0.0,0.0,64,0.00,,---,0.00,VWS V14.00,2013-11-05 08:36:00,
2013-11-05 03:41:00,41.7,30.8,30.39,WNW,292,0.0,0.0,65,0.00,,---,0.00,VWS V14.00,2013-11-05 08:41:00,
2013-11-05 03:47:00,41.7,31.2,30.39,NNW,338,1.3,1.3,66,0.00,,---,0.00,VWS V14.00,2013-11-05 08:47:00,
2013-11-05 03:52:00,41.9,31.8,30.39,NNW,338,0.0,0.9,67,0.00,,---,0.00,VWS V14.00,2013-11-05 08:52:00,
2013-11-05 03:57:00,42.3,32.1,30.39,WNW,292,1.6,1.6,67,0.00,,---,0.00,VWS V14.00,2013-11-05 08:57:00,
2013-11-05 04:03:00,42.3,32.5,30.39,ENE,68,0.0,0.9,68,0.00,,---,0.00,VWS V14.00,2013-11-05 09:03:00,
2013-11-05 04:08:00,42.3,32.5,30.39,ENE,68,0.0,0.9,68,0.00,,---,0.00,VWS V14.00,2013-11-05 09:08:00,
2013-11-05 04:13:00,42.6,32.8,30.39,SE,135,0.0,0.0,68,0.00,,---,0.00,VWS V14.00,2013-11-05 09:13:00,
2013-11-05 04:19:00,42.8,33.0,30.39,SE,135,0.0,0.0,68,0.00,,---,0.00,VWS V14.00,2013-11-05 09:19:00,
2013-11-05 04:24:00,43.0,33.2,30.39,SE,135,0.0,0.0,68,0.00,,---,0.00,VWS V14.00,2013-11-05 09:24:00,
2013-11-05 04:29:00,43.2,33.7,30.39,NNE,22,0.0,0.0,69,0.00,,---,0.00,VWS V14.00,2013-11-05 09:29:00,
2013-11-05 04:35:00,43.2,33.7,30.39,NNE,22,0.0,0.0,69,0.00,,---,0.00,VWS V14.00,2013-11-05 09:35:00,
2013-11-05 04:40:00,43.5,34.4,30.39,SSE,158,0.0,0.0,70,0.00,,---,0.00,VWS V14.00,2013-11-05 09:40:00,
2013-11-05 04:45:00,43.5,34.4,30.39,South,180,0.0,0.0,70,0.00,,---,0.00,VWS V14.00,2013-11-05 09:45:00,
2013-11-05 04:51:00,43.5,34.4,30.39,South,180,0.0,0.9,70,0.00,,---,0.00,VWS V14.00,2013-11-05 09:51:00,
2013-11-05 04:57:00,43.5,34.4,30.39,South,180,0.0,0.0,70,0.00,,---,0.00,VWS V14.00,2013-11-05 09:57:00,
2013-11-05 05:03:00,43.5,34.4,30.39,South,180,0.0,0.0,70,0.00,,---,0.00,VWS V14.00,2013-11-05 10:03:00,
2013-11-05 05:09:00,43.5,34.4,30.39,South,180,0.0,0.0,70,0.00,,---,0.00,VWS V14.00,2013-11-05 10:09:00,
2013-11-05 05:15:00,43.5,34.4,30.39,South,180,0.0,0.0,70,0.00,,---,0.00,VWS V14.00,2013-11-05 10:15:00,
2013-11-05 05:20:00,43.3,34.2,30.39,South,180,0.0,0.0,70,0.00,,---,0.00,VWS V14.00,2013-11-05 10:20:00,
2013-11-05 05:26:00,43.3,34.2,30.39,South,180,0.0,0.0,70,0.00,,---,0.00,VWS V14.00,2013-11-05 10:26:00,
2013-11-05 05:31:00,43.0,34.2,30.39,South,180,1.1,1.1,71,0.00,,---,0.00,VWS V14.00,2013-11-05 10:31:00,
2013-11-05 05:36:00,42.8,34.1,30.39,South,180,0.0,0.0,71,0.00,,---,0.00,VWS V14.00,2013-11-05 10:36:00,
2013-11-05 05:43:00,42.6,33.5,30.39,South,180,0.0,0.0,70,0.00,,---,0.00,VWS V14.00,2013-11-05 10:43:00,
2013-11-05 05:48:00,42.1,33.4,30.39,South,180,0.0,0.0,71,0.00,,---,0.00,VWS V14.00,2013-11-05 10:48:00,
2013-11-05 05:54:00,42.1,33.4,30.39,South,180,0.0,0.0,71,0.00,,---,0.00,VWS V14.00,2013-11-05 10:54:00,
2013-11-05 06:00:00,41.7,33.0,30.39,South,180,0.0,0.0,71,0.00,,---,0.00,VWS V14.00,2013-11-05 11:00:00,
2013-11-05 06:05:00,41.5,33.2,30.39,South,180,0.0,0.0,72,0.00,,---,0.00,VWS V14.00,2013-11-05 11:05:00,
2013-11-05 06:12:00,41.5,33.2,30.39,SSE,158,0.0,0.0,72,0.00,,---,0.00,VWS V14.00,2013-11-05 11:12:00,
2013-11-05 06:17:00,41.5,33.2,30.39,SSE,158,0.0,0.0,72,0.00,,---,0.00,VWS V14.00,2013-11-05 11:17:00,
2013-11-05 06:23:00,41.5,33.2,30.39,SSE,158,0.0,0.0,72,0.00,,---,0.00,VWS V14.00,2013-11-05 11:23:00,
2013-11-05 06:28:00,41.4,33.4,30.41,SSE,158,0.0,0.0,73,0.00,,---,0.00,VWS V14.00,2013-11-05 11:28:00,
2013-11-05 06:33:00,41.7,33.7,30.41,NE,45,1.1,1.6,73,0.00,,---,0.00,VWS V14.00,2013-11-05 11:33:00,
2013-11-05 06:38:00,41.7,33.7,30.41,ENE,68,0.0,0.0,73,0.00,,---,0.00,VWS V14.00,2013-11-05 11:38:00,
2013-11-05 06:44:00,41.5,33.5,30.41,East,90,0.0,0.0,73,0.00,,---,0.00,VWS V14.00,2013-11-05 11:44:00,
2013-11-05 06:49:00,41.5,33.5,30.41,East,90,0.0,0.0,73,0.00,,---,0.00,VWS V14.00,2013-11-05 11:49:00,
2013-11-05 06:54:00,41.5,33.5,30.41,East,90,0.0,0.0,73,0.00,,---,0.00,VWS V14.00,2013-11-05 11:54:00,
2013-11-05 06:59:00,41.5,33.5,30.41,ESE,112,0.0,0.0,73,0.00,,---,0.00,VWS V14.00,2013-11-05 11:59:00,
2013-11-05 07:06:00,41.2,33.2,30.41,ESE,112,0.0,0.0,73,0.00,,---,0.00,VWS V14.00,2013-11-05 12:06:00,
2013-11-05 07:12:00,41.4,33.4,30.41,ESE,112,0.0,0.0,73,0.00,,---,0.00,VWS V14.00,2013-11-05 12:12:00,
2013-11-05 07:17:00,41.4,33.4,30.41,WNW,292,0.0,0.9,73,0.00,,---,0.00,VWS V14.00,2013-11-05 12:17:00,
2013-11-05 07:23:00,41.5,33.5,30.41,SSW,202,0.0,0.0,73,0.00,,---,0.00,VWS V14.00,2013-11-05 12:23:00,
2013-11-05 07:28:00,41.9,34.2,30.41,SSW,202,0.0,0.0,74,0.00,,---,0.00,VWS V14.00,2013-11-05 12:28:00,
2013-11-05 07:35:00,42.3,34.6,30.41,NNW,338,3.6,3.6,74,0.00,,---,0.00,VWS V14.00,2013-11-05 12:35:00,
2013-11-05 07:40:00,42.8,35.1,30.41,WNW,292,0.0,0.0,74,0.00,,---,0.00,VWS V14.00,2013-11-05 12:40:00,
2013-11-05 07:46:00,43.7,36.3,30.41,ESE,112,0.0,0.0,75,0.00,,---,0.00,VWS V14.00,2013-11-05 12:46:00,
2013-11-05 07:51:00,44.8,37.3,30.41,SSW,202,1.3,1.6,75,0.00,,---,0.00,VWS V14.00,2013-11-05 12:51:00,
2013-11-05 07:56:00,46.0,38.9,30.41,ENE,68,3.4,3.4,76,0.00,,---,0.00,VWS V14.00,2013-11-05 12:56:00,
2013-11-05 08:02:00,47.1,39.3,30.41,ENE,68,1.3,1.3,74,0.00,,---,0.00,VWS V14.00,2013-11-05 13:02:00,
2013-11-05 08:07:00,48.0,40.1,30.41,South,180,3.8,3.8,74,0.00,,---,0.00,VWS V14.00,2013-11-05 13:07:00,
2013-11-05 08:12:00,49.3,40.3,30.39,NW,315,1.6,2.0,71,0.00,,---,0.00,VWS V14.00,2013-11-05 13:12:00,
2013-11-05 08:17:00,49.6,39.9,30.39,South,180,1.6,3.1,69,0.00,,---,0.00,VWS V14.00,2013-11-05 13:17:00,
2013-11-05 08:23:00,50.2,40.0,30.39,SSW,202,2.0,2.2,68,0.00,,---,0.00,VWS V14.00,2013-11-05 13:23:00,
2013-11-05 08:29:00,50.5,39.6,30.41,SSW,202,0.0,1.1,66,0.00,,---,0.00,VWS V14.00,2013-11-05 13:29:00,
2013-11-05 08:35:00,50.7,39.8,30.41,South,180,2.5,2.5,66,0.00,,---,0.00,VWS V14.00,2013-11-05 13:35:00,
2013-11-05 08:40:00,51.3,39.9,30.41,SE,135,1.1,1.3,65,0.00,,---,0.00,VWS V14.00,2013-11-05 13:40:00,
2013-11-05 08:46:00,51.6,39.8,30.41,South,180,2.0,2.5,64,0.00,,---,0.00,VWS V14.00,2013-11-05 13:46:00,
2013-11-05 08:51:00,52.5,40.3,30.41,WNW,292,2.9,2.9,63,0.00,,---,0.00,VWS V14.00,2013-11-05 13:51:00,
2013-11-05 08:58:00,52.9,40.2,30.39,SSE,158,0.0,1.3,62,0.00,,---,0.00,VWS V14.00,2013-11-05 13:58:00,
2013-11-05 09:03:00,53.1,40.4,30.39,SSW,202,1.1,2.5,62,0.00,,---,0.00,VWS V14.00,2013-11-05 14:03:00,
2013-11-05 09:08:00,53.1,40.0,30.39,SSW,202,2.5,2.7,61,0.00,,---,0.00,VWS V14.00,2013-11-05 14:08:00,
2013-11-05 09:14:00,53.1,40.0,30.41,SSE,158,2.2,2.2,61,0.00,,---,0.00,VWS V14.00,2013-11-05 14:14:00,
2013-11-05 09:19:00,53.1,39.6,30.41,SSE,158,1.3,1.3,60,0.00,,---,0.00,VWS V14.00,2013-11-05 14:19:00,
2013-11-05 09:25:00,53.1,39.6,30.41,SW,225,3.6,3.6,60,0.00,,---,0.00,VWS V14.00,2013-11-05 14:25:00,
2013-11-05 09:30:00,53.4,39.9,30.41,South,180,1.6,2.0,60,0.00,,---,0.00,VWS V14.00,2013-11-05 14:30:00,
2013-11-05 09:35:00,53.8,40.2,30.41,East,90,1.6,2.9,60,0.00,,---,0.00,VWS V14.00,2013-11-05 14:35:00,
2013-11-05 09:40:00,54.0,39.5,30.41,NW,315,2.2,2.2,58,0.00,,---,0.00,VWS V14.00,2013-11-05 14:40:00,
2013-11-05 09:46:00,54.0,39.5,30.41,ESE,112,1.1,1.3,58,0.00,,---,0.00,VWS V14.00,2013-11-05 14:46:00,
2013-11-05 09:52:00,54.3,39.4,30.41,SW,225,3.8,3.8,57,0.00,,---,0.00,VWS V14.00,2013-11-05 14:52:00,
2013-11-05 09:57:00,55.4,40.9,30.41,ENE,68,1.6,1.6,58,0.00,,---,0.00,VWS V14.00,2013-11-05 14:57:00,
2013-11-05 10:03:00,55.6,40.6,30.41,SSW,202,1.6,1.6,57,0.00,,---,0.00,VWS V14.00,2013-11-05 15:03:00,
2013-11-05 10:08:00,55.9,40.5,30.41,South,180,1.3,1.6,56,0.00,,---,0.00,VWS V14.00,2013-11-05 15:08:00,
2013-11-05 10:13:00,56.3,40.4,30.41,SSE,158,2.0,2.2,55,0.00,,---,0.00,VWS V14.00,2013-11-05 15:13:00,
2013-11-05 10:19:00,55.9,40.0,30.41,SSE,158,1.3,2.0,55,0.00,,---,0.00,VWS V14.00,2013-11-05 15:19:00,
2013-11-05 10:25:00,56.7,41.2,30.41,SSW,202,1.3,2.0,56,0.00,,---,0.00,VWS V14.00,2013-11-05 15:25:00,
2013-11-05 10:30:00,56.8,40.9,30.41,South,180,2.9,2.9,55,0.00,,---,0.00,VWS V14.00,2013-11-05 15:30:00,
2013-11-05 10:35:00,56.7,40.2,30.41,South,180,2.7,2.7,54,0.00,,---,0.00,VWS V14.00,2013-11-05 15:35:00,
2013-11-05 10:40:00,56.8,40.4,30.41,SE,135,2.5,2.5,54,0.00,,---,0.00,VWS V14.00,2013-11-05 15:40:00,
2013-11-05 10:46:00,57.0,40.6,30.41,WNW,292,3.1,3.1,54,0.00,,---,0.00,VWS V14.00,2013-11-05 15:46:00,
2013-11-05 10:51:00,57.0,40.6,30.41,SSW,202,0.0,0.0,54,0.00,,---,0.00,VWS V14.00,2013-11-05 15:51:00,
2013-11-05 10:56:00,57.2,40.7,30.41,SE,135,3.1,3.1,54,0.00,,---,0.00,VWS V14.00,2013-11-05 15:56:00,
2013-11-05 11:02:00,57.0,40.1,30.41,SE,135,4.0,4.0,53,0.00,,---,0.00,VWS V14.00,2013-11-05 16:02:00,
2013-11-05 11:07:00,56.8,39.4,30.41,ENE,68,2.7,2.7,52,0.00,,---,0.00,VWS V14.00,2013-11-05 16:07:00,
2013-11-05 11:12:00,57.0,40.1,30.41,SSW,202,1.3,1.3,53,0.00,,---,0.00,VWS V14.00,2013-11-05 16:12:00,
2013-11-05 11:18:00,57.2,39.8,30.41,SSE,158,0.9,4.0,52,0.00,,---,0.00,VWS V14.00,2013-11-05 16:18:00,
2013-11-05 11:23:00,57.9,39.9,30.41,ESE,112,1.3,2.0,51,0.00,,---,0.00,VWS V14.00,2013-11-05 16:23:00,
2013-11-05 11:30:00,58.3,40.2,30.41,North,0,3.1,3.1,51,0.00,,---,0.00,VWS V14.00,2013-11-05 16:30:00,
2013-11-05 11:35:00,58.8,41.2,30.41,SSW,202,2.2,2.2,52,0.00,,---,0.00,VWS V14.00,2013-11-05 16:35:00,
2013-11-05 11:40:00,58.6,40.6,30.39,WSW,248,2.9,2.9,51,0.00,,---,0.00,VWS V14.00,2013-11-05 16:40:00,
2013-11-05 11:47:00,58.1,39.6,30.39,NW,315,1.3,3.1,50,0.00,,---,0.00,VWS V14.00,2013-11-05 16:47:00,
2013-11-05 11:53:00,57.7,39.2,30.39,SE,135,1.6,6.0,50,0.00,,---,0.00,VWS V14.00,2013-11-05 16:53:00,
2013-11-05 11:59:00,58.1,40.1,30.39,SSE,158,2.7,4.9,51,0.00,,---,0.00,VWS V14.00,2013-11-05 16:59:00,
2013-11-05 12:05:00,58.1,39.1,30.39,SSW,202,1.1,2.9,49,0.00,,---,0.00,VWS V14.00,2013-11-05 17:05:00,
2013-11-05 12:10:00,58.3,39.7,30.39,WNW,292,3.1,3.1,50,0.00,,---,0.00,VWS V14.00,2013-11-05 17:10:00,
2013-11-05 12:16:00,58.1,39.1,30.39,SSW,202,1.6,1.6,49,0.00,,---,0.00,VWS V14.00,2013-11-05 17:16:00,
2013-11-05 12:21:00,58.1,39.6,30.39,SSW,202,2.0,2.0,50,0.00,,---,0.00,VWS V14.00,2013-11-05 17:21:00,
2013-11-05 12:27:00,58.1,39.6,30.39,SSW,202,1.1,3.1,50,0.00,,---,0.00,VWS V14.00,2013-11-05 17:27:00,
2013-11-05 12:32:00,57.9,39.4,30.39,SSE,158,2.2,2.2,50,0.00,,---,0.00,VWS V14.00,2013-11-05 17:32:00,
2013-11-05 12:38:00,58.3,39.7,30.39,South,180,2.0,2.0,50,0.00,,---,0.00,VWS V14.00,2013-11-05 17:38:00,
2013-11-05 12:43:00,58.1,39.6,30.39,SSE,158,0.0,2.0,50,0.00,,---,0.00,VWS V14.00,2013-11-05 17:43:00,
2013-11-05 12:49:00,58.6,40.1,30.39,WSW,248,2.7,2.7,50,0.00,,---,0.00,VWS V14.00,2013-11-05 17:49:00,
2013-11-05 12:54:00,59.2,40.0,30.39,WSW,248,2.0,2.0,49,0.00,,---,0.00,VWS V14.00,2013-11-05 17:54:00,
2013-11-05 12:59:00,59.4,40.2,30.39,South,180,1.3,1.3,49,0.00,,---,0.00,VWS V14.00,2013-11-05 17:59:00,
2013-11-05 13:05:00,59.7,40.0,30.39,SSE,158,1.3,1.3,48,0.00,,---,0.00,VWS V14.00,2013-11-05 18:05:00,
2013-11-05 13:11:00,59.5,39.8,30.39,NNE,22,1.6,1.6,48,0.00,,---,0.00,VWS V14.00,2013-11-05 18:11:00,
2013-11-05 13:16:00,59.5,39.8,30.39,ESE,112,1.3,2.0,48,0.00,,---,0.00,VWS V14.00,2013-11-05 18:16:00,
2013-11-05 13:21:00,59.4,39.7,30.39,SSE,158,2.5,3.8,48,0.00,,---,0.00,VWS V14.00,2013-11-05 18:21:00,
2013-11-05 13:27:00,59.0,39.4,30.39,SSW,202,2.5,2.5,48,0.00,,---,0.00,VWS V14.00,2013-11-05 18:27:00,
2013-11-05 13:33:00,59.7,40.0,30.39,ESE,112,3.6,3.6,48,0.00,,---,0.00,VWS V14.00,2013-11-05 18:33:00,
2013-11-05 13:38:00,60.1,40.3,30.39,SSW,202,3.4,3.4,48,0.00,,---,0.00,VWS V14.00,2013-11-05 18:38:00,
2013-11-05 13:44:00,59.4,39.2,30.36,ENE,68,5.4,5.4,47,0.00,,---,0.00,VWS V14.00,2013-11-05 18:44:00,
2013-11-05 13:49:00,59.0,38.8,30.36,SSW,202,2.2,2.2,47,0.00,,---,0.00,VWS V14.00,2013-11-05 18:49:00,
2013-11-05 13:55:00,59.0,39.4,30.36,SSE,158,1.1,2.2,48,0.00,,---,0.00,VWS V14.00,2013-11-05 18:55:00,
2013-11-05 14:00:00,59.0,39.9,30.36,NNW,338,0.9,1.3,49,0.00,,---,0.00,VWS V14.00,2013-11-05 19:00:00,
2013-11-05 14:05:00,58.8,39.7,30.36,SSE,158,1.6,2.2,49,0.00,,---,0.00,VWS V14.00,2013-11-05 19:05:00,
2013-11-05 14:10:00,58.1,39.1,30.36,SSE,158,0.0,1.6,49,0.00,,---,0.00,VWS V14.00,2013-11-05 19:10:00,
2013-11-05 14:16:00,57.9,38.9,30.36,SSE,158,1.1,2.9,49,0.00,,---,0.00,VWS V14.00,2013-11-05 19:16:00,
2013-11-05 14:21:00,57.9,39.4,30.36,SSW,202,1.3,2.0,50,0.00,,---,0.00,VWS V14.00,2013-11-05 19:21:00,
2013-11-05 14:27:00,57.7,39.2,30.36,ENE,68,3.6,3.6,50,0.00,,---,0.00,VWS V14.00,2013-11-05 19:27:00,
2013-11-05 14:32:00,57.9,39.4,30.36,SSW,202,1.1,1.1,50,0.00,,---,0.00,VWS V14.00,2013-11-05 19:32:00,
2013-11-05 14:38:00,58.1,39.6,30.36,SSW,202,0.0,2.7,50,0.00,,---,0.00,VWS V14.00,2013-11-05 19:38:00,
2013-11-05 14:44:00,58.1,39.6,30.36,NW,315,2.5,2.5,50,0.00,,---,0.00,VWS V14.00,2013-11-05 19:44:00,
2013-11-05 14:50:00,57.9,38.9,30.36,NE,45,3.1,3.1,49,0.00,,---,0.00,VWS V14.00,2013-11-05 19:50:00,
2013-11-05 14:55:00,58.5,39.9,30.36,ESE,112,2.5,2.5,50,0.00,,---,0.00,VWS V14.00,2013-11-05 19:55:00,
2013-11-05 15:00:00,58.3,39.7,30.36,ESE,112,2.5,2.5,50,0.00,,---,0.00,VWS V14.00,2013-11-05 20:00:00,
2013-11-05 15:05:00,58.1,39.1,30.36,SSE,158,1.3,2.5,49,0.00,,---,0.00,VWS V14.00,2013-11-05 20:05:00,
2013-11-05 15:11:00,57.6,39.1,30.36,SSW,202,0.0,0.0,50,0.00,,---,0.00,VWS V14.00,2013-11-05 20:11:00,
2013-11-05 15:16:00,56.8,38.4,30.36,South,180,1.6,1.6,50,0.00,,---,0.00,VWS V14.00,2013-11-05 20:16:00,
2013-11-05 15:21:00,57.0,39.1,30.36,South,180,0.0,2.0,51,0.00,,---,0.00,VWS V14.00,2013-11-05 20:21:00,
2013-11-05 15:27:00,56.8,38.9,30.36,WNW,292,2.7,2.7,51,0.00,,---,0.00,VWS V14.00,2013-11-05 20:27:00,
2013-11-05 15:32:00,56.5,38.6,30.36,SSW,202,0.0,2.5,51,0.00,,---,0.00,VWS V14.00,2013-11-05 20:32:00,
2013-11-05 15:37:00,56.3,38.4,30.36,SSW,202,1.1,1.1,51,0.00,,---,0.00,VWS V14.00,2013-11-05 20:37:00,
2013-11-05 15:43:00,55.9,38.1,30.33,WSW,248,1.1,2.0,51,0.00,,---,0.00,VWS V14.00,2013-11-05 20:43:00,
2013-11-05 15:48:00,55.6,37.8,30.33,ESE,112,1.3,1.3,51,0.00,,---,0.00,VWS V14.00,2013-11-05 20:48:00,
2013-11-05 15:53:00,55.6,38.2,30.33,ESE,112,0.9,0.9,52,0.00,,---,0.00,VWS V14.00,2013-11-05 20:53:00,
2013-11-05 15:58:00,55.4,38.1,30.33,SSW,202,0.0,0.0,52,0.00,,---,0.00,VWS V14.00,2013-11-05 20:58:00,
2013-11-05 16:05:00,55.0,38.2,30.33,SSW,202,0.0,0.0,53,0.00,,---,0.00,VWS V14.00,2013-11-05 21:05:00,
2013-11-05 16:11:00,54.9,38.1,30.33,SSW,202,0.0,0.0,53,0.00,,---,0.00,VWS V14.00,2013-11-05 21:11:00,
2013-11-05 16:16:00,54.7,38.4,30.33,SSW,202,0.0,0.0,54,0.00,,---,0.00,VWS V14.00,2013-11-05 21:16:00,
2013-11-05 16:22:00,54.5,38.2,30.33,SSW,202,0.0,0.0,54,0.00,,---,0.00,VWS V14.00,2013-11-05 21:22:00,
2013-11-05 16:27:00,54.3,38.5,30.33,SSW,202,0.0,0.0,55,0.00,,---,0.00,VWS V14.00,2013-11-05 21:27:00,
2013-11-05 16:32:00,53.8,38.0,30.33,SSW,202,0.0,0.0,55,0.00,,---,0.00,VWS V14.00,2013-11-05 21:32:00,
2013-11-05 16:38:00,53.2,38.0,30.33,SSW,202,0.0,0.0,56,0.00,,---,0.00,VWS V14.00,2013-11-05 21:38:00,
2013-11-05 16:43:00,52.9,37.6,30.33,SSW,202,0.0,0.0,56,0.00,,---,0.00,VWS V14.00,2013-11-05 21:43:00,
2013-11-05 16:49:00,52.3,37.6,30.33,SSW,202,0.0,0.0,57,0.00,,---,0.00,VWS V14.00,2013-11-05 21:49:00,
2013-11-05 16:54:00,51.6,37.8,30.33,SSW,202,0.0,0.0,59,0.00,,---,0.00,VWS V14.00,2013-11-05 21:54:00,
2013-11-05 16:59:00,51.6,38.2,30.33,SSW,202,0.0,0.0,60,0.00,,---,0.00,VWS V14.00,2013-11-05 21:59:00,
2013-11-05 17:06:00,51.3,37.9,30.33,SSW,202,0.0,0.0,60,0.00,,---,0.00,VWS V14.00,2013-11-05 22:06:00,
2013-11-05 17:11:00,51.3,38.3,30.33,SSW,202,0.0,0.0,61,0.00,,---,0.00,VWS V14.00,2013-11-05 22:11:00,
2013-11-05 17:17:00,51.3,38.3,30.33,SSW,202,0.0,0.0,61,0.00,,---,0.00,VWS V14.00,2013-11-05 22:17:00,
2013-11-05 17:22:00,51.1,38.1,30.33,SSW,202,0.0,0.0,61,0.00,,---,0.00,VWS V14.00,2013-11-05 22:22:00,
2013-11-05 17:28:00,50.9,38.4,30.33,SSW,202,0.0,0.0,62,0.00,,---,0.00,VWS V14.00,2013-11-05 22:28:00,
2013-11-05 17:33:00,50.7,38.2,30.33,SSW,202,0.0,0.0,62,0.00,,---,0.00,VWS V14.00,2013-11-05 22:33:00,
2013-11-05 17:38:00,50.7,38.6,30.33,SSW,202,0.0,0.0,63,0.00,,---,0.00,VWS V14.00,2013-11-05 22:38:00,
2013-11-05 17:43:00,50.7,38.6,30.33,SSW,202,0.0,0.0,63,0.00,,---,0.00,VWS V14.00,2013-11-05 22:43:00,
2013-11-05 17:50:00,50.5,38.8,30.33,SSW,202,0.0,0.0,64,0.00,,---,0.00,VWS V14.00,2013-11-05 22:50:00,
2013-11-05 17:55:00,50.5,38.8,30.33,SSW,202,0.0,0.0,64,0.00,,---,0.00,VWS V14.00,2013-11-05 22:55:00,
2013-11-05 18:01:00,50.4,38.7,30.33,SSW,202,0.0,0.0,64,0.00,,---,0.00,VWS V14.00,2013-11-05 23:01:00,
2013-11-05 18:06:00,50.4,39.1,30.33,SSW,202,0.0,0.0,65,0.00,,---,0.00,VWS V14.00,2013-11-05 23:06:00,
2013-11-05 18:11:00,50.2,38.9,30.36,SSW,202,0.0,0.0,65,0.00,,---,0.00,VWS V14.00,2013-11-05 23:11:00,
2013-11-05 18:17:00,50.2,38.9,30.36,SSW,202,0.0,0.0,65,0.00,,---,0.00,VWS V14.00,2013-11-05 23:17:00,
2013-11-05 18:22:00,50.0,38.7,30.36,SSW,202,0.0,0.0,65,0.00,,---,0.00,VWS V14.00,2013-11-05 23:22:00,
2013-11-05 18:27:00,49.8,38.9,30.33,SSW,202,0.0,0.0,66,0.00,,---,0.00,VWS V14.00,2013-11-05 23:27:00,
2013-11-05 18:33:00,49.6,38.8,30.33,SSW,202,0.0,0.0,66,0.00,,---,0.00,VWS V14.00,2013-11-05 23:33:00,
2013-11-05 18:38:00,49.5,39.0,30.33,SSW,202,0.0,0.0,67,0.00,,---,0.00,VWS V14.00,2013-11-05 23:38:00,
2013-11-05 18:45:00,49.3,38.8,30.33,SSW,202,0.0,0.0,67,0.00,,---,0.00,VWS V14.00,2013-11-05 23:45:00,
2013-11-05 18:50:00,49.1,38.6,30.33,SSW,202,0.0,0.0,67,0.00,,---,0.00,VWS V14.00,2013-11-05 23:50:00,
2013-11-05 18:55:00,48.9,38.8,30.33,SSW,202,0.0,0.0,68,0.00,,---,0.00,VWS V14.00,2013-11-05 23:55:00,
2013-11-05 19:01:00,48.7,38.7,30.36,SSW,202,0.0,0.0,68,0.00,,---,0.00,VWS V14.00,2013-11-06 00:01:00,
2013-11-05 19:06:00,48.7,38.7,30.36,SSW,202,0.0,0.0,68,0.00,,---,0.00,VWS V14.00,2013-11-06 00:06:00,
2013-11-05 19:11:00,48.6,38.5,30.33,SSW,202,0.0,0.0,68,0.00,,---,0.00,VWS V14.00,2013-11-06 00:11:00,
2013-11-05 19:17:00,48.4,38.7,30.33,SSW,202,0.0,0.0,69,0.00,,---,0.00,VWS V14.00,2013-11-06 00:17:00,
2013-11-05 19:22:00,48.2,38.5,30.33,SSW,202,0.0,0.0,69,0.00,,---,0.00,VWS V14.00,2013-11-06 00:22:00,
2013-11-05 19:28:00,48.2,38.5,30.33,SSW,202,0.0,0.0,69,0.00,,---,0.00,VWS V14.00,2013-11-06 00:28:00,
2013-11-05 19:34:00,48.0,38.7,30.33,SSW,202,0.0,0.0,70,0.00,,---,0.00,VWS V14.00,2013-11-06 00:34:00,
2013-11-05 19:39:00,47.7,38.4,30.33,SSW,202,0.0,0.0,70,0.00,,---,0.00,VWS V14.00,2013-11-06 00:39:00,
2013-11-05 19:45:00,47.7,38.7,30.36,SSW,202,0.0,0.0,71,0.00,,---,0.00,VWS V14.00,2013-11-06 00:45:00,
2013-11-05 19:50:00,47.7,38.7,30.36,SSW,202,0.0,0.0,71,0.00,,---,0.00,VWS V14.00,2013-11-06 00:50:00,
2013-11-05 19:56:00,47.3,38.4,30.36,SSW,202,0.0,0.0,71,0.00,,---,0.00,VWS V14.00,2013-11-06 00:56:00,
2013-11-05 20:01:00,47.3,38.7,30.36,SSW,202,0.0,0.0,72,0.00,,---,0.00,VWS V14.00,2013-11-06 01:01:00,
2013-11-05 20:06:00,47.1,38.6,30.36,SSW,202,0.0,0.0,72,0.00,,---,0.00,VWS V14.00,2013-11-06 01:06:00,
2013-11-05 20:12:00,47.1,38.6,30.33,SSW,202,0.0,0.0,72,0.00,,---,0.00,VWS V14.00,2013-11-06 01:12:00,
2013-11-05 20:17:00,47.3,38.7,30.33,SSW,202,0.0,0.0,72,0.00,,---,0.00,VWS V14.00,2013-11-06 01:17:00,
2013-11-05 20:23:00,47.3,39.1,30.33,SSW,202,0.0,0.0,73,0.00,,---,0.00,VWS V14.00,2013-11-06 01:23:00,
2013-11-05 20:29:00,47.7,39.4,30.33,SSW,202,0.0,0.0,73,0.00,,---,0.00,VWS V14.00,2013-11-06 01:29:00,
2013-11-05 20:34:00,47.7,39.4,30.33,SSW,202,0.0,0.0,73,0.00,,---,0.00,VWS V14.00,2013-11-06 01:34:00,
2013-11-05 20:40:00,47.7,39.8,30.33,SSW,202,0.0,0.0,74,0.00,,---,0.00,VWS V14.00,2013-11-06 01:40:00,
2013-11-05 20:46:00,47.8,40.0,30.33,SSW,202,0.0,0.0,74,0.00,,---,0.00,VWS V14.00,2013-11-06 01:46:00,
2013-11-05 20:51:00,47.8,40.0,30.33,SSW,202,0.0,0.0,74,0.00,,---,0.00,VWS V14.00,2013-11-06 01:51:00,
2013-11-05 20:56:00,47.8,40.0,30.33,SSW,202,0.9,1.1,74,0.00,,---,0.00,VWS V14.00,2013-11-06 01:56:00,
2013-11-05 21:02:00,47.7,39.4,30.33,SSW,202,0.0,0.0,73,0.00,,---,0.00,VWS V14.00,2013-11-06 02:02:00,
2013-11-05 21:08:00,47.5,39.3,30.33,SSW,202,0.0,0.0,73,0.00,,---,0.00,VWS V14.00,2013-11-06 02:08:00,
2013-11-05 21:13:00,47.5,39.3,30.33,SSW,202,0.0,0.0,73,0.00,,---,0.00,VWS V14.00,2013-11-06 02:13:00,
2013-11-05 21:19:00,47.3,39.1,30.33,SSW,202,0.0,0.0,73,0.00,,---,0.00,VWS V14.00,2013-11-06 02:19:00,
2013-11-05 21:24:00,47.3,39.1,30.33,SSW,202,0.0,0.0,73,0.00,,---,0.00,VWS V14.00,2013-11-06 02:24:00,
2013-11-05 21:30:00,47.3,39.1,30.33,SSW,202,0.0,0.0,73,0.00,,---,0.00,VWS V14.00,2013-11-06 02:30:00,
2013-11-05 21:35:00,47.3,39.1,30.33,SSW,202,0.0,0.0,73,0.00,,---,0.00,VWS V14.00,2013-11-06 02:35:00,
2013-11-05 21:40:00,47.3,39.5,30.33,SSW,202,0.0,0.0,74,0.00,,---,0.00,VWS V14.00,2013-11-06 02:40:00,
2013-11-05 21:46:00,47.3,39.5,30.33,SSW,202,0.0,0.0,74,0.00,,---,0.00,VWS V14.00,2013-11-06 02:46:00,
2013-11-05 21:52:00,47.3,39.5,30.33,SSW,202,0.0,0.0,74,0.00,,---,0.00,VWS V14.00,2013-11-06 02:52:00,
2013-11-05 21:58:00,47.1,39.6,30.33,SSW,202,0.0,0.0,75,0.00,,---,0.00,VWS V14.00,2013-11-06 02:58:00,
2013-11-05 22:03:00,47.1,39.6,30.33,SSW,202,0.0,0.0,75,0.00,,---,0.00,VWS V14.00,2013-11-06 03:03:00,
2013-11-05 22:08:00,46.9,39.4,30.33,SSW,202,0.0,0.0,75,0.00,,---,0.00,VWS V14.00,2013-11-06 03:08:00,
2013-11-05 22:14:00,46.9,39.4,30.30,SSW,202,0.0,0.0,75,0.00,,---,0.00,VWS V14.00,2013-11-06 03:14:00,
2013-11-05 22:19:00,47.1,39.6,30.30,SSW,202,0.0,0.0,75,0.00,,---,0.00,VWS V14.00,2013-11-06 03:19:00,
2013-11-05 22:26:00,47.1,39.6,30.30,SSW,202,0.0,0.0,75,0.00,,---,0.00,VWS V14.00,2013-11-06 03:26:00,
2013-11-05 22:31:00,47.1,39.6,30.30,SSW,202,0.0,0.0,75,0.00,,---,0.00,VWS V14.00,2013-11-06 03:31:00,
2013-11-05 22:36:00,46.9,39.4,30.30,WSW,248,0.0,0.0,75,0.00,,---,0.00,VWS V14.00,2013-11-06 03:36:00,
2013-11-05 22:42:00,46.8,39.3,30.30,WSW,248,0.0,0.0,75,0.00,,---,0.00,VWS V14.00,2013-11-06 03:42:00,
2013-11-05 22:47:00,46.8,39.6,30.30,WSW,248,0.0,0.0,76,0.00,,---,0.00,VWS V14.00,2013-11-06 03:47:00,
2013-11-05 22:53:00,46.6,39.1,30.30,WSW,248,0.0,0.0,75,0.00,,---,0.00,VWS V14.00,2013-11-06 03:53:00,
2013-11-05 22:58:00,46.4,38.9,30.27,WSW,248,0.0,0.0,75,0.00,,---,0.00,VWS V14.00,2013-11-06 03:58:00,
2013-11-05 23:03:00,46.2,39.1,30.27,WSW,248,0.0,0.0,76,0.00,,---,0.00,VWS V14.00,2013-11-06 04:03:00,
2013-11-05 23:09:00,46.0,38.6,30.27,WSW,248,0.0,0.0,75,0.00,,---,0.00,VWS V14.00,2013-11-06 04:09:00,
2013-11-05 23:14:00,46.0,38.9,30.30,WSW,248,0.0,0.0,76,0.00,,---,0.00,VWS V14.00,2013-11-06 04:14:00,
2013-11-05 23:19:00,45.7,38.6,30.30,WSW,248,0.0,0.0,76,0.00,,---,0.00,VWS V14.00,2013-11-06 04:19:00,
2013-11-05 23:24:00,45.9,38.7,30.30,WSW,248,0.0,0.0,76,0.00,,---,0.00,VWS V14.00,2013-11-06 04:24:00,
2013-11-05 23:30:00,45.9,38.7,30.27,WSW,248,0.0,0.0,76,0.00,,---,0.00,VWS V14.00,2013-11-06 04:30:00,
2013-11-05 23:35:00,45.9,39.1,30.27,SSW,202,0.0,0.0,77,0.00,,---,0.00,VWS V14.00,2013-11-06 04:35:00,
2013-11-05 23:41:00,46.0,39.9,30.27,SSW,202,0.0,0.0,79,0.00,,---,0.00,VWS V14.00,2013-11-06 04:41:00,
2013-11-05 23:46:00,46.0,39.9,30.27,West,270,0.0,0.0,79,0.00,,---,0.00,VWS V14.00,2013-11-06 04:46:00,
2013-11-05 23:51:00,46.0,39.6,30.27,West,270,0.0,0.0,78,0.00,,---,0.00,VWS V14.00,2013-11-06 04:51:00,
2013-11-05 23:56:00,46.0,39.2,30.27,West,270,0.0,0.0,77,0.00,,---,0.00,VWS V14.00,2013-11-06 04:56:00,